Year,Month,Day,Hour,Minute,Value (Times are PST for temperature in C)
2017,10,24,00,00,10.40
2017,10,24,00,01,10.40
2017,10,24,00,02,10.40
2017,10,24,00,03,10.40
2017,10,24,00,04,10.40
2017,10,24,00,05,10.30
2017,10,24,00,06,10.30
2017,10,24,00,07,10.30
2017,10,24,00,08,10.30
2017,10,24,00,09,10.30
2017,10,24,00,10,10.30
2017,10,24,00,11,10.30
2017,10,24,00,12,10.20
2017,10,24,00,13,10.20
2017,10,24,00,14,10.20
2017,10,24,00,15,10.20
2017,10,24,00,16,10.20
2017,10,24,00,17,10.20
2017,10,24,00,18,10.10
2017,10,24,00,19,10.10
2017,10,24,00,20,10.10
2017,10,24,00,21,10.10
2017,10,24,00,22,10.10
2017,10,24,00,23,10.10
2017,10,24,00,24,10.10
2017,10,24,00,25,10.10
2017,10,24,00,26,10.00
2017,10,24,00,27,10.00
2017,10,24,00,28,10.00
2017,10,24,00,29,9.90
2017,10,24,00,30,9.90
2017,10,24,00,31,9.90
2017,10,24,00,32,9.90
2017,10,24,00,33,9.80
2017,10,24,00,34,9.80
2017,10,24,00,35,9.80
2017,10,24,00,36,9.80
2017,10,24,00,37,9.80
2017,10,24,00,38,9.80
2017,10,24,00,39,9.80
2017,10,24,00,40,9.80
2017,10,24,00,41,9.70
2017,10,24,00,42,9.70
2017,10,24,00,43,9.70
2017,10,24,00,44,9.70
2017,10,24,00,45,9.70
2017,10,24,00,46,9.70
2017,10,24,00,47,9.70
2017,10,24,00,48,9.70
2017,10,24,00,49,9.70
2017,10,24,00,50,9.70
2017,10,24,00,51,9.60
2017,10,24,00,52,9.60
2017,10,24,00,53,9.60
2017,10,24,00,54,9.60
2017,10,24,00,55,9.60
2017,10,24,00,56,9.60
2017,10,24,00,57,9.60
2017,10,24,00,58,9.60
2017,10,24,00,59,9.60
2017,10,24,01,00,9.50
2017,10,24,01,01,9.50
2017,10,24,01,02,9.40
2017,10,24,01,03,9.40
2017,10,24,01,04,9.40
2017,10,24,01,05,9.50
2017,10,24,01,06,9.50
2017,10,24,01,07,9.50
2017,10,24,01,08,9.40
2017,10,24,01,09,9.50
2017,10,24,01,10,9.40
2017,10,24,01,11,9.40
2017,10,24,01,12,9.40
2017,10,24,01,13,9.40
2017,10,24,01,14,9.40
2017,10,24,01,15,9.30
2017,10,24,01,16,9.30
2017,10,24,01,17,9.30
2017,10,24,01,18,9.30
2017,10,24,01,19,9.20
2017,10,24,01,20,9.20
2017,10,24,01,21,9.20
2017,10,24,01,22,9.20
2017,10,24,01,23,9.20
2017,10,24,01,24,9.20
2017,10,24,01,25,9.10
2017,10,24,01,26,9.10
2017,10,24,01,27,9.10
2017,10,24,01,28,9.10
2017,10,24,01,29,9.10
2017,10,24,01,30,9.10
2017,10,24,01,31,9.10
2017,10,24,01,32,9.10
2017,10,24,01,33,9.00
2017,10,24,01,34,9.00
2017,10,24,01,35,8.90
2017,10,24,01,36,8.90
2017,10,24,01,37,8.90
2017,10,24,01,38,8.90
2017,10,24,01,39,8.90
2017,10,24,01,40,8.90
2017,10,24,01,41,8.80
2017,10,24,01,42,8.80
2017,10,24,01,43,8.80
2017,10,24,01,44,8.80
2017,10,24,01,45,8.80
2017,10,24,01,46,8.80
2017,10,24,01,47,8.80
2017,10,24,01,48,8.80
2017,10,24,01,49,8.80
2017,10,24,01,50,8.70
2017,10,24,01,51,8.70
2017,10,24,01,52,8.70
2017,10,24,01,53,8.70
2017,10,24,01,54,8.70
2017,10,24,01,55,8.70
2017,10,24,01,56,8.70
2017,10,24,01,57,8.70
2017,10,24,01,58,8.70
2017,10,24,01,59,8.70
2017,10,24,02,00,8.70
2017,10,24,02,01,8.70
2017,10,24,02,02,8.70
2017,10,24,02,03,8.60
2017,10,24,02,04,8.70
2017,10,24,02,05,8.70
2017,10,24,02,06,8.70
2017,10,24,02,07,8.70
2017,10,24,02,08,8.70
2017,10,24,02,09,8.70
2017,10,24,02,10,8.60
2017,10,24,02,11,8.60
2017,10,24,02,12,8.60
2017,10,24,02,13,8.50
2017,10,24,02,14,8.50
2017,10,24,02,15,8.50
2017,10,24,02,16,8.40
2017,10,24,02,17,8.40
2017,10,24,02,18,8.40
2017,10,24,02,19,8.40
2017,10,24,02,20,8.40
2017,10,24,02,21,8.40
2017,10,24,02,22,8.40
2017,10,24,02,23,8.40
2017,10,24,02,24,8.40
2017,10,24,02,25,8.40
2017,10,24,02,26,8.40
2017,10,24,02,27,8.30
2017,10,24,02,28,8.40
2017,10,24,02,29,8.40
2017,10,24,02,30,8.40
2017,10,24,02,31,8.30
2017,10,24,02,32,8.30
2017,10,24,02,33,8.30
2017,10,24,02,34,8.30
2017,10,24,02,35,8.30
2017,10,24,02,36,8.20
2017,10,24,02,37,8.20
2017,10,24,02,38,8.20
2017,10,24,02,39,8.20
2017,10,24,02,40,8.20
2017,10,24,02,41,8.20
2017,10,24,02,42,8.20
2017,10,24,02,43,8.20
2017,10,24,02,44,8.20
2017,10,24,02,45,8.20
2017,10,24,02,46,8.20
2017,10,24,02,47,8.20
2017,10,24,02,48,8.20
2017,10,24,02,49,8.20
2017,10,24,02,50,8.10
2017,10,24,02,51,8.10
2017,10,24,02,52,8.10
2017,10,24,02,53,8.10
2017,10,24,02,54,8.10
2017,10,24,02,55,8.10
2017,10,24,02,56,8.10
2017,10,24,02,57,8.10
2017,10,24,02,58,8.10
2017,10,24,02,59,8.10
2017,10,24,03,00,8.10
2017,10,24,03,01,8.10
2017,10,24,03,02,8.10
2017,10,24,03,03,8.10
2017,10,24,03,04,8.10
2017,10,24,03,05,8.10
2017,10,24,03,06,8.10
2017,10,24,03,07,8.10
2017,10,24,03,08,8.10
2017,10,24,03,09,8.10
2017,10,24,03,10,8.00
2017,10,24,03,11,8.00
2017,10,24,03,12,8.00
2017,10,24,03,13,7.90
2017,10,24,03,14,7.90
2017,10,24,03,15,7.90
2017,10,24,03,16,7.90
2017,10,24,03,17,7.80
2017,10,24,03,18,7.80
2017,10,24,03,19,7.80
2017,10,24,03,20,7.80
2017,10,24,03,21,7.80
2017,10,24,03,22,7.80
2017,10,24,03,23,7.80
2017,10,24,03,24,7.80
2017,10,24,03,25,7.80
2017,10,24,03,26,7.80
2017,10,24,03,27,7.80
2017,10,24,03,28,7.80
2017,10,24,03,29,7.80
2017,10,24,03,30,7.80
2017,10,24,03,31,7.80
2017,10,24,03,32,7.80
2017,10,24,03,33,7.80
2017,10,24,03,34,7.80
2017,10,24,03,35,7.80
2017,10,24,03,36,7.80
2017,10,24,03,37,7.80
2017,10,24,03,38,7.80
2017,10,24,03,39,7.80
2017,10,24,03,40,7.80
2017,10,24,03,41,7.80
2017,10,24,03,42,7.80
2017,10,24,03,43,7.90
2017,10,24,03,44,7.90
2017,10,24,03,45,7.90
2017,10,24,03,46,7.90
2017,10,24,03,47,7.90
2017,10,24,03,48,7.90
2017,10,24,03,49,7.80
2017,10,24,03,50,7.80
2017,10,24,03,51,7.80
2017,10,24,03,52,7.80
2017,10,24,03,53,7.80
2017,10,24,03,54,7.80
2017,10,24,03,55,7.80
2017,10,24,03,56,7.80
2017,10,24,03,57,7.70
2017,10,24,03,58,7.70
2017,10,24,03,59,7.70
2017,10,24,04,00,7.70
2017,10,24,04,01,7.70
2017,10,24,04,02,7.70
2017,10,24,04,03,7.70
2017,10,24,04,04,7.70
2017,10,24,04,05,7.60
2017,10,24,04,06,7.60
2017,10,24,04,07,7.60
2017,10,24,04,08,7.60
2017,10,24,04,09,7.60
2017,10,24,04,10,7.60
2017,10,24,04,11,7.60
2017,10,24,04,12,7.60
2017,10,24,04,13,7.70
2017,10,24,04,14,7.70
2017,10,24,04,15,7.70
2017,10,24,04,16,7.70
2017,10,24,04,17,7.70
2017,10,24,04,18,7.60
2017,10,24,04,19,7.60
2017,10,24,04,20,7.60
2017,10,24,04,21,7.60
2017,10,24,04,22,7.60
2017,10,24,04,23,7.50
2017,10,24,04,24,7.50
2017,10,24,04,25,7.50
2017,10,24,04,26,7.50
2017,10,24,04,27,7.50
2017,10,24,04,28,7.50
2017,10,24,04,29,7.60
2017,10,24,04,30,7.60
2017,10,24,04,31,7.60
2017,10,24,04,32,7.60
2017,10,24,04,33,7.60
2017,10,24,04,34,7.70
2017,10,24,04,35,7.70
2017,10,24,04,36,7.80
2017,10,24,04,37,7.80
2017,10,24,04,38,7.80
2017,10,24,04,39,7.80
2017,10,24,04,40,7.80
2017,10,24,04,41,7.70
2017,10,24,04,42,7.70
2017,10,24,04,43,7.60
2017,10,24,04,44,7.60
2017,10,24,04,45,7.60
2017,10,24,04,46,7.50
2017,10,24,04,47,7.50
2017,10,24,04,48,7.50
2017,10,24,04,49,7.40
2017,10,24,04,50,7.40
2017,10,24,04,51,7.40
2017,10,24,04,52,7.40
2017,10,24,04,53,7.40
2017,10,24,04,54,7.50
2017,10,24,04,55,7.50
2017,10,24,04,56,7.50
2017,10,24,04,57,7.50
2017,10,24,04,58,7.50
2017,10,24,04,59,7.50
2017,10,24,05,00,7.50
2017,10,24,05,01,7.50
2017,10,24,05,02,7.50
2017,10,24,05,03,7.50
2017,10,24,05,04,7.40
2017,10,24,05,05,7.40
2017,10,24,05,06,7.50
2017,10,24,05,07,7.50
2017,10,24,05,08,7.50
2017,10,24,05,09,7.50
2017,10,24,05,10,7.50
2017,10,24,05,11,7.60
2017,10,24,05,12,7.60
2017,10,24,05,13,7.60
2017,10,24,05,14,7.60
2017,10,24,05,15,7.60
2017,10,24,05,16,7.50
2017,10,24,05,17,7.60
2017,10,24,05,18,7.50
2017,10,24,05,19,7.50
2017,10,24,05,20,7.50
2017,10,24,05,21,7.50
2017,10,24,05,22,7.40
2017,10,24,05,23,7.40
2017,10,24,05,24,7.30
2017,10,24,05,25,7.30
2017,10,24,05,26,7.20
2017,10,24,05,27,7.20
2017,10,24,05,28,7.20
2017,10,24,05,29,7.20
2017,10,24,05,30,7.20
2017,10,24,05,31,7.20
2017,10,24,05,32,7.20
2017,10,24,05,33,7.20
2017,10,24,05,34,7.20
2017,10,24,05,35,7.20
2017,10,24,05,36,7.20
2017,10,24,05,37,7.20
2017,10,24,05,38,7.20
2017,10,24,05,39,7.20
2017,10,24,05,40,7.20
2017,10,24,05,41,7.20
2017,10,24,05,42,7.20
2017,10,24,05,43,7.30
2017,10,24,05,44,7.40
2017,10,24,05,45,7.40
2017,10,24,05,46,7.50
2017,10,24,05,47,7.50
2017,10,24,05,48,7.50
2017,10,24,05,49,7.50
2017,10,24,05,50,7.40
2017,10,24,05,51,7.40
2017,10,24,05,52,7.30
2017,10,24,05,53,7.30
2017,10,24,05,54,7.30
2017,10,24,05,55,7.20
2017,10,24,05,56,7.20
2017,10,24,05,57,7.20
2017,10,24,05,58,7.20
2017,10,24,05,59,7.10
2017,10,24,06,00,7.10
2017,10,24,06,01,7.10
2017,10,24,06,02,7.10
2017,10,24,06,03,7.10
2017,10,24,06,04,7.10
2017,10,24,06,05,7.10
2017,10,24,06,06,7.10
2017,10,24,06,07,7.10
2017,10,24,06,08,7.10
2017,10,24,06,09,7.10
2017,10,24,06,10,7.10
2017,10,24,06,11,7.10
2017,10,24,06,12,7.10
2017,10,24,06,13,7.10
2017,10,24,06,14,7.10
2017,10,24,06,15,7.10
2017,10,24,06,16,7.00
2017,10,24,06,17,7.00
2017,10,24,06,18,7.00
2017,10,24,06,19,7.00
2017,10,24,06,20,7.00
2017,10,24,06,21,6.90
2017,10,24,06,22,6.90
2017,10,24,06,23,6.90
2017,10,24,06,24,6.90
2017,10,24,06,25,6.90
2017,10,24,06,26,6.90
2017,10,24,06,27,6.90
2017,10,24,06,28,6.80
2017,10,24,06,29,6.80
2017,10,24,06,30,6.80
2017,10,24,06,31,6.80
2017,10,24,06,32,6.80
2017,10,24,06,33,6.80
2017,10,24,06,34,6.80
2017,10,24,06,35,6.90
2017,10,24,06,36,6.90
2017,10,24,06,37,6.90
2017,10,24,06,38,7.00
2017,10,24,06,39,7.00
2017,10,24,06,40,7.00
2017,10,24,06,41,7.00
2017,10,24,06,42,7.00
2017,10,24,06,43,7.00
2017,10,24,06,44,6.90
2017,10,24,06,45,6.90
2017,10,24,06,46,6.90
2017,10,24,06,47,6.80
2017,10,24,06,48,6.80
2017,10,24,06,49,6.80
2017,10,24,06,50,6.70
2017,10,24,06,51,6.70
2017,10,24,06,52,6.70
2017,10,24,06,53,6.70
2017,10,24,06,54,6.70
2017,10,24,06,55,6.70
2017,10,24,06,56,6.70
2017,10,24,06,57,6.70
2017,10,24,06,58,6.70
2017,10,24,06,59,6.70
2017,10,24,07,00,6.70
2017,10,24,07,01,6.70
2017,10,24,07,02,6.80
2017,10,24,07,03,6.80
2017,10,24,07,04,6.80
2017,10,24,07,05,6.90
2017,10,24,07,06,6.90
2017,10,24,07,07,6.80
2017,10,24,07,08,6.80
2017,10,24,07,09,6.80
2017,10,24,07,10,6.70
2017,10,24,07,11,6.70
2017,10,24,07,12,6.60
2017,10,24,07,13,6.60
2017,10,24,07,14,6.60
2017,10,24,07,15,6.60
2017,10,24,07,16,6.60
2017,10,24,07,17,6.60
2017,10,24,07,18,6.60
2017,10,24,07,19,6.60
2017,10,24,07,20,6.60
2017,10,24,07,21,6.50
2017,10,24,07,22,6.50
2017,10,24,07,23,6.50
2017,10,24,07,24,6.50
2017,10,24,07,25,6.50
2017,10,24,07,26,6.50
2017,10,24,07,27,6.50
2017,10,24,07,28,6.50
2017,10,24,07,29,6.50
2017,10,24,07,30,6.50
2017,10,24,07,31,6.40
2017,10,24,07,32,6.50
2017,10,24,07,33,6.50
2017,10,24,07,34,6.60
2017,10,24,07,35,6.60
2017,10,24,07,36,6.70
2017,10,24,07,37,6.70
2017,10,24,07,38,6.70
2017,10,24,07,39,6.60
2017,10,24,07,40,6.60
2017,10,24,07,41,6.60
2017,10,24,07,42,6.60
2017,10,24,07,43,6.50
2017,10,24,07,44,6.50
2017,10,24,07,45,6.40
2017,10,24,07,46,6.40
2017,10,24,07,47,6.40
2017,10,24,07,48,6.40
2017,10,24,07,49,6.40
2017,10,24,07,50,6.40
2017,10,24,07,51,6.40
2017,10,24,07,52,6.40
2017,10,24,07,53,6.40
2017,10,24,07,54,6.40
2017,10,24,07,55,6.40
2017,10,24,07,56,6.50
2017,10,24,07,57,6.50
2017,10,24,07,58,6.60
2017,10,24,07,59,6.60
2017,10,24,08,00,6.60
2017,10,24,08,01,6.70
2017,10,24,08,02,6.70
2017,10,24,08,03,6.70
2017,10,24,08,04,6.60
2017,10,24,08,05,6.60
2017,10,24,08,06,6.60
2017,10,24,08,07,6.60
2017,10,24,08,08,6.70
2017,10,24,08,09,6.70
2017,10,24,08,10,6.60
2017,10,24,08,11,6.60
2017,10,24,08,12,6.60
2017,10,24,08,13,6.60
2017,10,24,08,14,6.60
2017,10,24,08,15,6.60
2017,10,24,08,16,6.60
2017,10,24,08,17,6.60
2017,10,24,08,18,6.60
2017,10,24,08,19,6.60
2017,10,24,08,20,6.50
2017,10,24,08,21,6.50
2017,10,24,08,22,6.50
2017,10,24,08,23,6.50
2017,10,24,08,24,6.50
2017,10,24,08,25,6.50
2017,10,24,08,26,6.50
2017,10,24,08,27,6.50
2017,10,24,08,28,6.50
2017,10,24,08,29,6.50
2017,10,24,08,30,6.50
2017,10,24,08,31,6.50
2017,10,24,08,32,6.50
2017,10,24,08,33,6.50
2017,10,24,08,34,6.50
2017,10,24,08,35,6.60
2017,10,24,08,36,6.60
2017,10,24,08,37,6.60
2017,10,24,08,38,6.70
2017,10,24,08,39,6.70
2017,10,24,08,40,6.70
2017,10,24,08,41,6.80
2017,10,24,08,42,6.80
2017,10,24,08,43,6.80
2017,10,24,08,44,6.80
2017,10,24,08,45,6.80
2017,10,24,08,46,6.90
2017,10,24,08,47,7.00
2017,10,24,08,48,7.10
2017,10,24,08,49,7.20
2017,10,24,08,50,7.20
2017,10,24,08,51,7.30
2017,10,24,08,52,7.30
2017,10,24,08,53,7.30
2017,10,24,08,54,7.30
2017,10,24,08,55,7.30
2017,10,24,08,56,7.40
2017,10,24,08,57,7.40
2017,10,24,08,58,7.40
2017,10,24,08,59,7.50
2017,10,24,09,00,7.50
2017,10,24,09,01,7.50
2017,10,24,09,02,7.60
2017,10,24,09,03,7.60
2017,10,24,09,04,7.60
2017,10,24,09,05,7.70
2017,10,24,09,06,7.70
2017,10,24,09,07,7.80
2017,10,24,09,08,7.90
2017,10,24,09,09,8.00
2017,10,24,09,10,8.00
2017,10,24,09,11,8.10
2017,10,24,09,12,8.20
2017,10,24,09,13,8.30
2017,10,24,09,14,8.30
2017,10,24,09,15,8.40
2017,10,24,09,16,8.50
2017,10,24,09,17,8.50
2017,10,24,09,18,8.60
2017,10,24,09,19,8.60
2017,10,24,09,20,8.70
2017,10,24,09,21,8.70
2017,10,24,09,22,8.70
2017,10,24,09,23,8.80
2017,10,24,09,24,8.80
2017,10,24,09,25,8.80
2017,10,24,09,26,8.80
2017,10,24,09,27,8.80
2017,10,24,09,28,9.00
2017,10,24,09,29,9.10
2017,10,24,09,30,9.20
2017,10,24,09,31,9.20
2017,10,24,09,32,9.30
2017,10,24,09,33,9.30
2017,10,24,09,34,9.30
2017,10,24,09,35,9.40
2017,10,24,09,36,9.40
2017,10,24,09,37,9.50
2017,10,24,09,38,9.60
2017,10,24,09,39,9.60
2017,10,24,09,40,9.70
2017,10,24,09,41,9.70
2017,10,24,09,42,9.80
2017,10,24,09,43,9.80
2017,10,24,09,44,9.90
2017,10,24,09,45,10.00
2017,10,24,09,46,10.10
2017,10,24,09,47,10.20
2017,10,24,09,48,10.30
2017,10,24,09,49,10.40
2017,10,24,09,50,10.40
2017,10,24,09,51,10.50
2017,10,24,09,52,10.50
2017,10,24,09,53,10.60
2017,10,24,09,54,10.60
2017,10,24,09,55,10.70
2017,10,24,09,56,10.80
2017,10,24,09,57,10.80
2017,10,24,09,58,10.80
2017,10,24,09,59,10.80
2017,10,24,10,00,10.80
2017,10,24,10,01,10.90
2017,10,24,10,02,10.90
2017,10,24,10,03,11.00
2017,10,24,10,04,11.10
2017,10,24,10,05,11.10
2017,10,24,10,06,11.20
2017,10,24,10,07,11.20
2017,10,24,10,08,11.20
2017,10,24,10,09,11.30
2017,10,24,10,10,11.40
2017,10,24,10,11,11.50
2017,10,24,10,12,11.70
2017,10,24,10,13,11.80
2017,10,24,10,14,12.00
2017,10,24,10,15,12.00
2017,10,24,10,16,12.10
2017,10,24,10,17,12.10
2017,10,24,10,18,12.20
2017,10,24,10,19,12.10
2017,10,24,10,20,12.10
2017,10,24,10,21,12.20
2017,10,24,10,22,12.30
2017,10,24,10,23,12.30
2017,10,24,10,24,12.30
2017,10,24,10,25,12.30
2017,10,24,10,26,12.40
2017,10,24,10,27,12.50
2017,10,24,10,28,12.60
2017,10,24,10,29,12.60
2017,10,24,10,30,12.70
2017,10,24,10,31,12.80
2017,10,24,10,32,12.80
2017,10,24,10,33,12.80
2017,10,24,10,34,12.80
2017,10,24,10,35,12.90
2017,10,24,10,36,13.00
2017,10,24,10,37,13.00
2017,10,24,10,38,13.10
2017,10,24,10,39,13.20
2017,10,24,10,40,13.20
2017,10,24,10,41,13.30
2017,10,24,10,42,13.30
2017,10,24,10,43,13.40
2017,10,24,10,44,13.40
2017,10,24,10,45,13.50
2017,10,24,10,46,13.60
2017,10,24,10,47,13.60
2017,10,24,10,48,13.60
2017,10,24,10,49,13.60
2017,10,24,10,50,13.60
2017,10,24,10,51,13.70
2017,10,24,10,52,13.70
2017,10,24,10,53,13.80
2017,10,24,10,54,13.80
2017,10,24,10,55,13.80
2017,10,24,10,56,13.80
2017,10,24,10,57,13.90
2017,10,24,10,58,13.90
2017,10,24,10,59,14.00
2017,10,24,11,00,14.10
2017,10,24,11,01,14.20
2017,10,24,11,02,14.30
2017,10,24,11,03,14.30
2017,10,24,11,04,14.40
2017,10,24,11,05,14.50
2017,10,24,11,06,14.60
2017,10,24,11,07,14.60
2017,10,24,11,08,14.70
2017,10,24,11,09,14.70
2017,10,24,11,10,14.70
2017,10,24,11,11,14.70
2017,10,24,11,12,14.80
2017,10,24,11,13,14.90
2017,10,24,11,14,15.00
2017,10,24,11,15,15.00
2017,10,24,11,16,14.90
2017,10,24,11,17,15.00
2017,10,24,11,18,15.00
2017,10,24,11,19,15.00
2017,10,24,11,20,15.00
2017,10,24,11,21,14.90
2017,10,24,11,22,14.70
2017,10,24,11,23,14.60
2017,10,24,11,24,14.60
2017,10,24,11,25,14.60
2017,10,24,11,26,14.60
2017,10,24,11,27,14.60
2017,10,24,11,28,14.60
2017,10,24,11,29,14.70
2017,10,24,11,30,14.70
2017,10,24,11,31,14.80
2017,10,24,11,32,14.90
2017,10,24,11,33,15.00
2017,10,24,11,34,15.00
2017,10,24,11,35,15.00
2017,10,24,11,36,15.00
2017,10,24,11,37,15.00
2017,10,24,11,38,15.00
2017,10,24,11,39,15.00
2017,10,24,11,40,15.00
2017,10,24,11,41,15.00
2017,10,24,11,42,15.00
2017,10,24,11,43,15.00
2017,10,24,11,44,15.00
2017,10,24,11,45,14.90
2017,10,24,11,46,14.90
2017,10,24,11,47,14.90
2017,10,24,11,48,14.90
2017,10,24,11,49,14.90
2017,10,24,11,50,15.00
2017,10,24,11,51,15.00
2017,10,24,11,52,15.00
2017,10,24,11,53,15.00
2017,10,24,11,54,15.00
2017,10,24,11,55,15.00
2017,10,24,11,56,15.00
2017,10,24,11,57,15.10
2017,10,24,11,58,15.20
2017,10,24,11,59,15.30
2017,10,24,12,00,15.30
2017,10,24,12,01,15.30
2017,10,24,12,02,15.30
2017,10,24,12,03,15.30
2017,10,24,12,04,15.30
2017,10,24,12,05,15.30
2017,10,24,12,06,15.40
2017,10,24,12,07,15.40
2017,10,24,12,08,15.50
2017,10,24,12,09,15.60
2017,10,24,12,10,15.60
2017,10,24,12,11,15.60
2017,10,24,12,12,15.70
2017,10,24,12,13,15.60
2017,10,24,12,14,15.60
2017,10,24,12,15,15.60
2017,10,24,12,16,15.60
2017,10,24,12,17,15.60
2017,10,24,12,18,15.70
2017,10,24,12,19,15.70
2017,10,24,12,20,15.70
2017,10,24,12,21,15.80
2017,10,24,12,22,15.70
2017,10,24,12,23,15.70
2017,10,24,12,24,15.70
2017,10,24,12,25,15.70
2017,10,24,12,26,15.70
2017,10,24,12,27,15.60
2017,10,24,12,28,15.50
2017,10,24,12,29,15.40
2017,10,24,12,30,15.30
2017,10,24,12,31,15.30
2017,10,24,12,32,15.30
2017,10,24,12,33,15.30
2017,10,24,12,34,15.30
2017,10,24,12,35,15.30
2017,10,24,12,36,15.40
2017,10,24,12,37,15.40
2017,10,24,12,38,15.40
2017,10,24,12,39,15.40
2017,10,24,12,40,15.50
2017,10,24,12,41,15.50
2017,10,24,12,42,15.50
2017,10,24,12,43,15.50
2017,10,24,12,44,15.50
2017,10,24,12,45,15.50
2017,10,24,12,46,15.50
2017,10,24,12,47,15.50
2017,10,24,12,48,15.50
2017,10,24,12,49,15.60
2017,10,24,12,50,15.60
2017,10,24,12,51,15.60
2017,10,24,12,52,15.60
2017,10,24,12,53,15.60
2017,10,24,12,54,15.60
2017,10,24,12,55,15.60
2017,10,24,12,56,15.60
2017,10,24,12,57,15.50
2017,10,24,12,58,15.60
2017,10,24,12,59,15.60
2017,10,24,13,00,15.60
2017,10,24,13,01,15.70
2017,10,24,13,02,15.70
2017,10,24,13,03,15.70
2017,10,24,13,04,15.70
2017,10,24,13,05,15.80
2017,10,24,13,06,15.80
2017,10,24,13,07,15.90
2017,10,24,13,08,15.90
2017,10,24,13,09,15.90
2017,10,24,13,10,15.90
2017,10,24,13,11,16.00
2017,10,24,13,12,16.00
2017,10,24,13,13,16.10
2017,10,24,13,14,16.10
2017,10,24,13,15,16.10
2017,10,24,13,16,16.20
2017,10,24,13,17,16.20
2017,10,24,13,18,16.20
2017,10,24,13,19,16.30
2017,10,24,13,20,16.30
2017,10,24,13,21,16.40
2017,10,24,13,22,16.40
2017,10,24,13,23,16.40
2017,10,24,13,24,16.30
2017,10,24,13,25,16.30
2017,10,24,13,26,16.20
2017,10,24,13,27,16.20
2017,10,24,13,28,16.20
2017,10,24,13,29,16.20
2017,10,24,13,30,16.20
2017,10,24,13,31,16.20
2017,10,24,13,32,16.20
2017,10,24,13,33,16.20
2017,10,24,13,34,16.20
2017,10,24,13,35,16.20
2017,10,24,13,36,16.20
2017,10,24,13,37,16.20
2017,10,24,13,38,16.20
2017,10,24,13,39,16.20
2017,10,24,13,40,16.30
2017,10,24,13,41,16.40
2017,10,24,13,42,16.40
2017,10,24,13,43,16.50
2017,10,24,13,44,16.60
2017,10,24,13,45,16.60
2017,10,24,13,46,16.60
2017,10,24,13,47,16.60
2017,10,24,13,48,16.60
2017,10,24,13,49,16.60
2017,10,24,13,50,16.60
2017,10,24,13,51,16.60
2017,10,24,13,52,16.60
2017,10,24,13,53,16.60
2017,10,24,13,54,16.60
2017,10,24,13,55,16.60
2017,10,24,13,56,16.60
2017,10,24,13,57,16.60
2017,10,24,13,58,16.60
2017,10,24,13,59,16.70
2017,10,24,14,00,16.70
2017,10,24,14,01,16.80
2017,10,24,14,02,16.80
2017,10,24,14,03,16.80
2017,10,24,14,04,16.90
2017,10,24,14,05,16.90
2017,10,24,14,06,16.80
2017,10,24,14,07,16.80
2017,10,24,14,08,16.70
2017,10,24,14,09,16.70
2017,10,24,14,10,16.70
2017,10,24,14,11,16.70
2017,10,24,14,12,16.70
2017,10,24,14,13,16.80
2017,10,24,14,14,16.80
2017,10,24,14,15,16.90
2017,10,24,14,16,16.90
2017,10,24,14,17,17.00
2017,10,24,14,18,17.10
2017,10,24,14,19,17.10
2017,10,24,14,20,17.20
2017,10,24,14,21,17.20
2017,10,24,14,22,17.20
2017,10,24,14,23,17.30
2017,10,24,14,24,17.30
2017,10,24,14,25,17.30
2017,10,24,14,26,17.30
2017,10,24,14,27,17.30
2017,10,24,14,28,17.30
2017,10,24,14,29,17.30
2017,10,24,14,30,17.20
2017,10,24,14,31,17.10
2017,10,24,14,32,17.00
2017,10,24,14,33,16.90
2017,10,24,14,34,16.90
2017,10,24,14,35,16.90
2017,10,24,14,36,17.00
2017,10,24,14,37,17.10
2017,10,24,14,38,17.10
2017,10,24,14,39,17.20
2017,10,24,14,40,17.30
2017,10,24,14,41,17.30
2017,10,24,14,42,17.30
2017,10,24,14,43,17.30
2017,10,24,14,44,17.10
2017,10,24,14,45,17.10
2017,10,24,14,46,16.90
2017,10,24,14,47,16.90
2017,10,24,14,48,16.80
2017,10,24,14,49,16.70
2017,10,24,14,50,16.60
2017,10,24,14,51,16.60
2017,10,24,14,52,16.60
2017,10,24,14,53,16.60
2017,10,24,14,54,16.70
2017,10,24,14,55,16.70
2017,10,24,14,56,16.80
2017,10,24,14,57,16.80
2017,10,24,14,58,16.90
2017,10,24,14,59,16.80
2017,10,24,15,00,16.80
2017,10,24,15,01,16.80
2017,10,24,15,02,16.70
2017,10,24,15,03,16.70
2017,10,24,15,04,16.60
2017,10,24,15,05,16.60
2017,10,24,15,06,16.60
2017,10,24,15,07,16.60
2017,10,24,15,08,16.60
2017,10,24,15,09,16.60
2017,10,24,15,10,16.60
2017,10,24,15,11,16.60
2017,10,24,15,12,16.70
2017,10,24,15,13,16.70
2017,10,24,15,14,16.80
2017,10,24,15,15,16.80
2017,10,24,15,16,16.90
2017,10,24,15,17,17.00
2017,10,24,15,18,17.00
2017,10,24,15,19,17.10
2017,10,24,15,20,17.10
2017,10,24,15,21,17.10
2017,10,24,15,22,17.10
2017,10,24,15,23,17.00
2017,10,24,15,24,17.00
2017,10,24,15,25,16.90
2017,10,24,15,26,16.90
2017,10,24,15,27,16.90
2017,10,24,15,28,16.90
2017,10,24,15,29,16.90
2017,10,24,15,30,16.90
2017,10,24,15,31,16.90
2017,10,24,15,32,16.90
2017,10,24,15,33,17.00
2017,10,24,15,34,17.00
2017,10,24,15,35,17.10
2017,10,24,15,36,17.10
2017,10,24,15,37,17.10
2017,10,24,15,38,17.10
2017,10,24,15,39,17.10
2017,10,24,15,40,17.10
2017,10,24,15,41,17.10
2017,10,24,15,42,17.00
2017,10,24,15,43,16.90
2017,10,24,15,44,16.90
2017,10,24,15,45,16.80
2017,10,24,15,46,16.70
2017,10,24,15,47,16.60
2017,10,24,15,48,16.60
2017,10,24,15,49,16.60
2017,10,24,15,50,16.60
2017,10,24,15,51,16.50
2017,10,24,15,52,16.50
2017,10,24,15,53,16.40
2017,10,24,15,54,16.40
2017,10,24,15,55,16.40
2017,10,24,15,56,16.50
2017,10,24,15,57,16.50
2017,10,24,15,58,16.50
2017,10,24,15,59,16.50
2017,10,24,16,00,16.40
2017,10,24,16,01,16.40
2017,10,24,16,02,16.40
2017,10,24,16,03,16.40
2017,10,24,16,04,16.40
2017,10,24,16,05,16.30
2017,10,24,16,06,16.30
2017,10,24,16,07,16.20
2017,10,24,16,08,16.10
2017,10,24,16,09,16.10
2017,10,24,16,10,16.10
2017,10,24,16,11,16.10
2017,10,24,16,12,16.00
2017,10,24,16,13,16.10
2017,10,24,16,14,16.10
2017,10,24,16,15,16.10
2017,10,24,16,16,16.20
2017,10,24,16,17,16.20
2017,10,24,16,18,16.30
2017,10,24,16,19,16.30
2017,10,24,16,20,16.30
2017,10,24,16,21,16.30
2017,10,24,16,22,16.30
2017,10,24,16,23,16.30
2017,10,24,16,24,16.30
2017,10,24,16,25,16.30
2017,10,24,16,26,16.30
2017,10,24,16,27,16.30
2017,10,24,16,28,16.30
2017,10,24,16,29,16.20
2017,10,24,16,30,16.20
2017,10,24,16,31,16.20
2017,10,24,16,32,16.20
2017,10,24,16,33,16.20
2017,10,24,16,34,16.20
2017,10,24,16,35,16.20
2017,10,24,16,36,16.20
2017,10,24,16,37,16.20
2017,10,24,16,38,16.20
2017,10,24,16,39,16.10
2017,10,24,16,40,16.10
2017,10,24,16,41,16.10
2017,10,24,16,42,16.10
2017,10,24,16,43,16.10
2017,10,24,16,44,16.10
2017,10,24,16,45,16.00
2017,10,24,16,46,16.00
2017,10,24,16,47,16.00
2017,10,24,16,48,15.90
2017,10,24,16,49,15.90
2017,10,24,16,50,15.90
2017,10,24,16,51,15.90
2017,10,24,16,52,15.80
2017,10,24,16,53,15.80
2017,10,24,16,54,15.80
2017,10,24,16,55,15.80
2017,10,24,16,56,15.70
2017,10,24,16,57,15.70
2017,10,24,16,58,15.60
2017,10,24,16,59,15.60
2017,10,24,17,00,15.50
2017,10,24,17,01,15.50
2017,10,24,17,02,15.30
2017,10,24,17,03,15.30
2017,10,24,17,04,15.10
2017,10,24,17,05,15.00
2017,10,24,17,06,15.00
2017,10,24,17,07,14.90
2017,10,24,17,08,14.80
2017,10,24,17,09,14.70
2017,10,24,17,10,14.60
2017,10,24,17,11,14.50
2017,10,24,17,12,14.40
2017,10,24,17,13,14.30
2017,10,24,17,14,14.30
2017,10,24,17,15,14.20
2017,10,24,17,16,14.10
2017,10,24,17,17,14.00
2017,10,24,17,18,14.00
2017,10,24,17,19,13.90
2017,10,24,17,20,13.80
2017,10,24,17,21,13.80
2017,10,24,17,22,13.70
2017,10,24,17,23,13.70
2017,10,24,17,24,13.60
2017,10,24,17,25,13.60
2017,10,24,17,26,13.50
2017,10,24,17,27,13.50
2017,10,24,17,28,13.40
2017,10,24,17,29,13.40
2017,10,24,17,30,13.30
2017,10,24,17,31,13.30
2017,10,24,17,32,13.20
2017,10,24,17,33,13.20
2017,10,24,17,34,13.20
2017,10,24,17,35,13.20
2017,10,24,17,36,13.10
2017,10,24,17,37,13.10
2017,10,24,17,38,13.10
2017,10,24,17,39,13.00
2017,10,24,17,40,13.00
2017,10,24,17,41,12.90
2017,10,24,17,42,12.90
2017,10,24,17,43,12.80